SR5NLK-1 Weather Reports


time (UTC)temp
C
wind
direction
speed
KPH
gust
KPH
rain 1hr
cm
rain 24hr
cm
rain mn
cm
humidity
%
barometer
mb
20260504050502 28 202 8.0 27.4 0.00 0.00 0.00 25 962.0
20260504050002 28 135 12.9 29.0 0.00 0.00 0.00 26 1050.7
20260504045502 28 225 3.2 19.3 0.00 0.00 0.00 26 1043.1
20260504045401 28 180 11.3 19.3 0.00 0.00 0.00 26 1083.3
20260504045002 28 202 8.0 12.9 0.00 0.00 0.00 27 1033.4
20260504044502 27 202 9.7 16.1 0.00 0.00 0.00 28 1055.3
20260504044002 27 180 4.8 16.1 0.00 0.00 0.00 29 1068.1
20260504043502 26 180 6.4 11.3 0.00 0.00 0.00 30 1001.0
20260504043219 25 180 6.4 19.3 0.00 0.00 0.00 31 996.6
20260504043202 25 180 14.5 16.1 0.00 0.00 0.00 32 1081.5
20260504043002 25 180 6.4 19.3 0.00 0.00 0.00 31 996.6
20260504042742 24 225 6.4 14.5 0.00 0.00 0.00 33 1009.3
20260504042740 23 202 20.9 20.9 0.00 0.00 0.00 34 1043.8
20260504042502 25 180 14.5 16.1 0.00 0.00 0.00 32 1081.5
20260504042101 24 202 3.2 14.5 0.00 0.00 0.00 32 1087.7
20260504042009 24 225 6.4 14.5 0.00 0.00 0.00 33 1009.3
20260504042002 24 225 6.4 14.5 0.00 0.00 0.00 33 1009.3
20260504041502 23 202 20.9 20.9 0.00 0.00 0.00 34 1043.8
20260504041002 22 202 4.8 12.9 0.00 0.00 0.00 35 1036.6
20260504040502 21 202 8.0 8.0 0.00 0.00 0.00 38 1049.1
20260504040002 20 202 4.8 11.3 0.00 0.00 0.00 41 1097.2
20260504035502 18 180 3.2 9.7 0.00 0.00 0.00 44 1078.4
20260504035002 17 180 4.8 9.7 0.00 0.00 0.00 47 1045.9
20260504034801 16 157 1.6 9.7 0.00 0.00 0.00 48 1010.3
20260504034502 15 135 4.8 11.3 0.00 0.00 0.00 49 1087.8
20260504034002 14 180 6.4 6.4 0.00 0.00 0.00 50 1036.5
20260504033502 13 112 4.8 9.7 0.00 0.00 0.00 50 1039.7
20260504033002 13 270 3.2 12.9 0.00 0.00 0.00 50 1049.1
20260504032502 13 202 9.7 12.9 0.00 0.00 0.00 50 1094.5
20260504032002 12 202 4.8 11.3 0.00 0.00 0.00 51 1007.3
20260504031501 12 180 6.4 11.3 0.00 0.00 0.00 51 1010.4
20260504031002 12 157 9.7 11.3 0.00 0.00 0.00 51 1004.1
20260504030502 12 157 8.0 9.7 0.00 0.00 0.00 51 1005.8
20260504030002 12 202 4.8 9.7 0.00 0.00 0.00 51 964.4
20260504025502 12 180 4.8 9.7 0.00 0.00 0.00 51 1058.5
20260504025002 12 157 4.8 14.5 0.00 0.00 0.00 51 993.2
20260504024502 12 180 3.2 11.3 0.00 0.00 0.00 51 1043.4
20260504024201 12 180 8.0 9.7 0.00 0.00 0.00 51 991.6
20260504024002 12 180 3.2 9.7 0.00 0.00 0.00 51 1084.7
20260504023502 12 157 6.4 9.7 0.00 0.00 0.00 51 1036.5
20260504023002 13 180 3.2 11.3 0.00 0.00 0.00 50 1055.3
20260504022502 13 157 3.2 6.4 0.00 0.00 0.00 50 1042.8
20260504022002 13 202 6.4 8.0 0.00 0.00 0.00 50 1016.6
20260504021502 13 180 6.4 11.3 0.00 0.00 0.00 50 1042.8
20260504021009 13 180 3.2 6.4 0.00 0.00 0.00 49 1055.4
20260504021002 13 180 3.2 6.4 0.00 0.00 0.00 49 1055.4
20260504020901 13 202 3.2 6.4 0.00 0.00 0.00 49 1097.2
20260504020502 13 180 3.2 6.4 0.00 0.00 0.00 49 1045.0
20260504020002 13 135 3.2 11.3 0.00 0.00 0.00 49 1083.3
20260504015502 13 135 8.0 11.3 0.00 0.00 0.00 49 1033.4
20260504015002 13 180 3.2 11.3 0.00 0.00 0.00 49 1027.1
20260504014512 13 202 11.3 11.3 0.00 0.00 0.00 49
20260504014502 13 202 11.3 11.3 0.00 0.00 0.00 49 1046.0
20260504014002 13 157 4.8 9.7 0.00 0.00 0.00 48 1039.7
20260504013742 13 202 9.7 9.7 0.00 0.00 0.00 48 1011.8
20260504013601 13 157 6.4 9.7 0.00 0.00 0.00 48 1082.9
20260504013502 13 202 9.7 9.7 0.00 0.00 0.00 48 1011.8
20260504013002 14 157 8.0 9.7 0.00 0.00 0.00 48 1039.1
20260504012502 14 202 9.7 12.9 0.00 0.00 0.00 48 1042.8
20260504012002 14 157 4.8 20.9 0.00 0.00 0.00 48 1010.4
20260504011502 14 202 4.8 9.7 0.00 0.00 0.00 47 1056.7
20260504011002 14 180 4.8 8.0 0.00 0.00 0.00 47 968.6
20260504010502 14 202 4.8 9.7 0.00 0.00 0.00 47 1094.1
20260504010302 14 180 3.2 9.7 0.00 0.00 0.00 47 1055.4
20260504010002 14 180 6.4 9.7 0.00 0.00 0.00 47 1084.6
20260504005502 14 180 8.0 9.7 0.00 0.00 0.00 47 1081.5
20260504005002 14 180 9.7 9.7 0.00 0.00 0.00 47 1011.1
20260504004502 14 180 4.8 12.9 0.00 0.00 0.00 46 1058.4
20260504004002 14 157 8.0 9.7 0.00 0.00 0.00 46 994.7
20260504003502 15 202 4.8 9.7 0.00 0.00 0.00 46 1044.6
20260504003002 15 157 9.7 11.3 0.00 0.00 0.00 46 1072.1
20260504002502 15 157 12.9 12.9 0.00 0.00 0.00 46 1075.2
20260504002002 15 157 8.0 8.0 0.00 0.00 0.00 45 1052.3
20260504001503 15 157 4.8 6.4 0.00 0.00 0.00 45 962.3
20260504001002 15 202 3.2 12.9 0.00 0.00 0.00 45 1001.0
20260504000502 15 157 3.2 12.9 0.00 0.00 0.00 45 1042.8
20260504000003 15 180 6.4 9.7 0.00 0.00 0.00 44 1001.0
20260503235702 15 202 6.4 11.3 0.00 0.00 0.00 44 1045.9
20260503235503 15 180 8.0 11.3 0.00 0.00 0.00 44 1080.4
20260503235003 15 157 6.4 12.9 0.00 0.00 0.00 44 1010.4
20260503234503 15 180 3.2 11.3 0.00 0.00 0.00 44 1015.3
20260503234003 15 157 4.8 9.7 0.00 0.00 0.00 44 1094.1
20260503233503 15 157 9.7 9.7 0.00 0.00 0.00 44 1100.3
20260503233003 15 157 6.4 9.7 0.00 0.00 0.00 43 994.7
20260503232503 15 157 4.8 8.0 0.00 0.00 0.00 43 1084.7
20260503232402 15 157 6.4 8.0 0.00 0.00 0.00 43 1052.2
20260503232003 15 157 4.8 8.0 0.00 0.00 0.00 43 1010.4
20260503231503 15 157 6.4 8.0 0.00 0.00 0.00 42 997.8
20260503231003 16 135 4.8 6.4 0.00 0.00 0.00 42 946.6
20260503230503 16 180 3.2 6.4 0.00 0.00 0.00 42 1097.2
20260503230003 16 180 4.8 8.0 0.00 0.00 0.00 42 1054.0
20260503225503 16 157 8.0 9.7 0.00 0.00 0.00 41 956.9
20260503225102 16 157 4.8 8.0 0.00 0.00 0.00 41 1038.3
20260503225003 16 180 3.2 8.0 0.00 0.00 0.00 41 1005.9
20260503224503 16 157 3.2 8.0 0.00 0.00 0.00 41 1039.7
20260503224003 16 157 4.8 9.7 0.00 0.00 0.00 41 977.9
20260503223503 16 180 3.2 9.7 0.00 0.00 0.00 40 1033.4
20260503223003 16 157 3.2 8.0 0.00 0.00 0.00 40 1084.7
20260503222503 16 157 4.8 8.0 0.00 0.00 0.00 40 1054.0
20260503222003 16 180 3.2 8.0 0.00 0.00 0.00 40 1005.8
20260503221802 16 157 1.6 8.0 0.00 0.00 0.00 40 1049.1
20260503221503 16 180 4.8 8.0 0.00 0.00 0.00 39 1016.7
20260503221003 16 180 8.0 8.0 0.00 0.00 0.00 39 968.6
20260503220503 17 225 3.2 4.8 0.00 0.00 0.00 39 1022.1
20260503220003 17 202 4.8 9.7 0.00 0.00 0.00 39 1045.9
20260503215503 17 180 4.8 11.3 0.00 0.00 0.00 39 1084.7
20260503215010 17 202 6.4 8.0 0.00 0.00 0.00 1010.4
20260503215003 17 202 6.4 8.0 0.00 0.00 0.00 38 1010.4
20260503214502 17 180 8.0 9.7 0.00 0.00 0.00 38 1075.2
20260503214003 17 157 4.8 9.7 0.00 0.00 0.00 38 1045.9
20260503213503 17 202 9.7 9.7 0.00 0.00 0.00 38 1004.1
20260503213009 17 180 3.2 9.7 0.00 0.00 0.00 37 1308.4
20260503213003 17 180 3.2 9.7 0.00 0.00 0.00 37 1084.7
20260503212503 17 180 3.2 9.7 0.00 0.00 0.00 37 1084.6
20260503212003 17 180 4.8 6.4 0.00 0.00 0.00 37 1058.5
20260503211503 17 157 1.6 9.7 0.00 0.00 0.00 36 1039.7
20260503211202 17 180 3.2 9.7 0.00 0.00 0.00 36 1045.9
20260503211003 17 180 4.8 9.7 0.00 0.00 0.00 36 1108.3
20260503210503 18 157 3.2 4.8 0.00 0.00 0.00 36 1046.0
20260503210003 18 180 6.4 9.7 0.00 0.00 0.00 35 1010.4
20260503205503 18 157 4.8 6.4 0.00 0.00 0.00 35 1058.5
20260503205003 18 157 3.2 9.7 0.00 0.00 0.00 35 1042.8
20260503204503 18 180 4.8 8.0 0.00 0.00 0.00 35 1081.5
20260503204003 18 180 6.4 12.9 0.00 0.00 0.00 35 952.9
20260503203902 18 157 3.2 12.9 0.00 0.00 0.00 35 997.9
20260503203503 18 180 12.9 12.9 0.00 0.00 0.00 34 1078.4
20260503203003 18 112 4.8 9.7 0.00 0.00 0.00 34 1094.0
20260503202503 18 180 4.8 9.7 0.00 0.00 0.00 34 982.1
20260503202003 18 157 4.8 8.0 0.00 0.00 0.00 33 959.0
20260503201503 18 180 6.4 8.0 0.00 0.00 0.00 33 988.4
20260503201003 19 180 4.8 9.7 0.00 0.00 0.00 33 1039.7
20260503200602 19 157 6.4 9.7 0.00 0.00 0.00 33 1081.5
20260503200503 19 157 6.4 9.7 0.00 0.00 0.00 33 1049.1
20260503200003 19 157 4.8 9.7 0.00 0.00 0.00 33 1007.3
20260503195511 19 180 8.0 9.7 0.00 0.00 0.00 33 1042.8
20260503195503 19 180 8.0 9.7 0.00 0.00 0.00 33 1042.8
20260503195003 19 180 4.8 9.7 0.00 0.00 0.00 32 1087.8
20260503194503 19 157 3.2 9.7 0.00 0.00 0.00 32 1075.2
20260503194003 20 180 6.4 9.7 0.00 0.00 0.00 32 1001.0
20260503193503 20 157 9.7 9.7 0.00 0.00 0.00 32 971.7
20260503193302 20 157 4.8 6.4 0.00 0.00 0.00 32 1078.4
20260503193003 20 157 6.4 9.7 0.00 0.00 0.00 31 1078.4
20260503192503 20 157 6.4 9.7 0.00 0.00 0.00 31 1027.1
20260503192003 20 157 6.4 9.7 0.00 0.00 0.00 31 914.6
20260503191503 20 180 6.4 8.0 0.00 0.00 0.00 31 1033.4
20260503191003 20 135 8.0 9.7 0.00 0.00 0.00 31 1090.9
20260503190503 20 157 6.4 9.7 0.00 0.00 0.00 30 1075.2
20260503190002 20 157 3.2 8.0 0.00 0.00 0.00 30 1039.7
20260503185503 20 180 3.2 11.3 0.00 0.00 0.00 30 1064.7
20260503185003 20 157 6.4 8.0 0.00 0.00 0.00 30 1001.0
20260503184503 21 135 4.8 8.0 0.00 0.00 0.00 29 1052.2
20260503184003 21 157 6.4 8.0 0.00 0.00 0.00 29 1049.1
20260503183503 21 157 4.8 8.0 0.00 0.00 0.00 27 1036.5
20260503183003 21 157 3.2 4.8 0.00 0.00 0.00 27 1036.6
20260503182702 21 202 4.8 6.4 0.00 0.00 0.00 28 1042.8
20260503182510 21 180 128.7 6.4 0.00 0.00 0.00 27 1075.2
20260503182503 21 180 1.6 6.4 0.00 0.00 0.00 27 1075.2
20260503182004 21 157 3.2 6.4 0.00 0.00 0.00 26 1075.3
20260503181504 22 202 3.2 8.0 0.00 0.00 0.00 26 1052.2
20260503181004 22 202 6.4 6.4 0.00 0.00 0.00 25 1039.7
20260503180503 22 180 4.8 8.0 0.00 0.00 0.00 25 1084.7
20260503180003 23 157 4.8 8.0 0.00 0.00 0.00 25 1052.2
20260503175503 23 202 8.0 8.0 0.00 0.00 0.00 24 1072.1
20260503175402 23 157 3.2 6.4 0.00 0.00 0.00 24 1036.5
20260503175003 24 202 4.8 6.4 0.00 0.00 0.00 24 1049.1
20260503174503 24 202 3.2 8.0 0.00 0.00 0.00 24 962.3
20260503174003 25 202 4.8 11.3 0.00 0.00 0.00 23 997.8
20260503173503 25 202 4.8 16.1 0.00 0.00 0.00 23 1072.1
20260503173003 25 225 6.4 9.7 0.00 0.00 0.00 23 1094.1
20260503172504 25 202 9.7 14.5 0.00 0.00 0.00 22 1090.9
20260503172102 26 202 4.8 14.5 0.00 0.00 0.00 22 1089.5
20260503172003 26 202 9.7 16.1 0.00 0.00 0.00 22 1049.1
20260503171503 26 225 14.5 19.3 0.00 0.00 0.00 22 985.3
20260503171011 26 180 4.8 12.9 0.00 0.00 0.00 22 956.0
20260503171003 26 180 4.8 12.9 0.00 0.00 0.00 22 956.0
20260503170503 26 225 8.0 14.5 0.00 0.00 0.00 21 1084.7
20260503151003 28 202 19.3 33.8 0.00 0.00 0.00 20 997.9
20260503150902 28 202 17.7 22.5 0.00 0.00 0.00 20 1049.1
20260503150503 28 270 11.3 24.1 0.00 0.00 0.00 20 1033.4
20260503140303 29 202 12.9 25.7 0.00 0.00 0.00 19 1109.7
20260503131004 29 157 9.7 29.0 0.00 0.00 0.00 19 1097.2
20260503130504 29 135 6.4 29.0 0.00 0.00 0.00 19 1036.6
20260503110504 28 157 24.1 24.1 0.00 0.00 0.00 21 1081.5
20260503090504 27 157 4.8 19.3 0.00 0.00 0.00 25 1055.4
20260503081511 30 157 19.3 25.7 0.00 0.00 0.00 22 1023.0
20260503081504 30 157 19.3 25.7 0.00 0.00 0.00 22 1023.0
20260503081004 31 157 8.0 33.8 0.00 0.00 0.00 22 1084.7
20260503080504 31 202 12.9 25.7 0.00 0.00 0.00 22 1081.5
20260503072703 34 202 17.7 30.6 0.00 0.00 0.00 21 1090.9
20260503072504 34 225 20.9 30.6 0.00 0.00 0.00 21 1047.8
20260503072004 33 180 6.4 14.5 0.00 0.00 0.00 23 1018.7
20260503071504 33 180 14.5 17.7 0.00 0.00 0.00 23 1052.5
20260503071004 33 157 14.5 16.1 0.00 0.00 0.00 23 1042.1
20260503070504 33 202 12.9 16.1 0.00 0.00 0.00 23 1036.4